sat.trackr.live / text

‹ back to catalog

STARLINK-36191

NORAD 67023 · 2025-293W

PAYLOAD ACTIVE UNKNOWN

§ Identity

Operator
Country
US
Launch date
2025-12-10
Launch site
AFWTR
Launch vehicle
Mass (kg)
RCS (m²)

Purposes: comms

External: N2YO · Heavens-Above · Gunter

§ Orbital elements

Epoch: 2026-09-20T21:25:49.477728Z

Period
96.11 min
Inclination
70.0018°
Eccentricity
0.0003619
Mean motion
14.98348816 rev/d
Perigee alt
569.5 km
Apogee alt
574.5 km
Semi-major
6,950.1 km
B*
2.2372e-5
RAAN
322.4297°
Arg perigee
270.3643°
Mean anomaly
89.7101°
Rev number
4,412

§ Raw data

STARLINK-361911 67023U 25293W   26263.89293377  .00000174  00000+0  22372-4 0  99972 67023  70.0018 322.4297 0003619 270.3643  89.7101 14.98348816 44128

JSON: /api/v1/satellites/67023 · /tle

For live sub-satellite position, see the globe view (requires WebGL).

§ Visibility from observer

Set your observer location to see the next 7 days of passes ≥ 10°. The values pass through the URL so the page stays shareable.

No JS? Fill the form by hand. The geolocation button needs JavaScript.